Home > Weather > Stockholm > Past weeks

Flag for Sweden Weather for the Past 2 Weeks in Stockholm, Sweden

Now
34 °F

Partly sunny.


Feels Like: 26 °F
Forecast: 29 / 31 °F
Wind: 9 mph from Northwest

Location: Stockholm Bromma Airport

Current Time: Feb 11, 2016 at 11:09:49 AM

Latest Report: Feb 11, 2016 at 10:20 AM


Visibility: N/A

Pressure: 29.30 "Hg

Humidity: 93%

Dew point: 32 °F

Location of StockholmLocation

Historic Weather in Stockholm — Graph

°F

Stockholm Temperature Yesterday

Maximum temperature yesterday: 39 °F (at 1:20 AM)
Minimum temperature yesterday: 34 °F (at 5:20 AM)
Average temperature yesterday: 38 °F

High & Low Weather Summary for the Past Weeks

 TemperatureHumidityPressure
High46 °F (Jan 29, 8:50 PM)100% (Jan 27, 10:20 PM)29.92 "Hg (Jan 27, 10:20 PM)
Low21 °F (Feb 5, 10:50 PM)57% (Jan 29, 11:20 PM)28.85 "Hg (Feb 2, 3:50 AM)
Average37 °F83%29.29 "Hg
* Reported Jan 27 9:20 AM — Feb 11 9:50 AM, Stockholm, Weather by CustomWeather, © 2016

Note: Actual official high and low records may vary slightly from our data, if they occured in-between our weather recording intervals... More about our weather records

Advertising

Stockholm Weather History for the Previous 24 Hours

 ConditionsComfort  
Time TempWeatherWind HumidityBarometerVisibility
9:50 AM
Thu, Feb 11
34 °FPartly sunny.9 mph93%29.30 "HgN/A
9:20 AM34 °FPartly sunny.7 mph100%29.27 "HgN/A
8:50 AM34 °FLow clouds.7 mph93%29.27 "HgN/A
8:20 AM34 °FLow clouds.9 mph93%29.27 "HgN/A
7:50 AM34 °FLow clouds.9 mph93%29.24 "HgN/A
7:20 AM34 °FLow clouds.9 mph93%29.24 "HgN/A
6:50 AM32 °FLow clouds.8 mph100%29.24 "HgN/A
6:20 AM32 °FLight rain. Low clouds.8 mph100%29.24 "HgN/A
5:20 AM32 °FLight rain. Low clouds.7 mph100%29.21 "Hg4 mi
4:20 AM32 °FSleet. Low clouds.9 mph100%29.18 "Hg5 mi
3:50 AM32 °FLight snow. Mostly cloudy.7 mph100%29.18 "Hg2 mi
3:20 AM34 °FLight rain. Mostly cloudy.10 mph93%29.18 "Hg2 mi
2:20 AM34 °FFog.6 mph100%29.15 "Hg1 mi
1:50 AM34 °FFog.6 mph100%29.15 "Hg1 mi
1:20 AM34 °FFog.5 mph100%29.15 "Hg1 mi
12:50 AM34 °FFog.5 mph100%29.15 "Hg2 mi
12:20 AM34 °FFog.5 mph100%29.12 "Hg1 mi
11:50 PM
Wed, Feb 10
34 °FFog.5 mph100%29.12 "Hg2 mi
11:20 PM36 °FFog.6 mph93%29.09 "Hg4 mi
10:50 PM36 °FFog.8 mph93%29.09 "Hg5 mi
9:50 PM37 °FFog.3 mph100%29.06 "Hg6 mi
9:20 PM37 °FFog.5 mph100%29.06 "Hg6 mi
8:50 PM37 °FPassing clouds.3 mph100%29.06 "HgN/A
8:20 PM37 °FPassing clouds.3 mph100%29.03 "HgN/A
7:50 PM37 °FPassing clouds.3 mph100%29.03 "HgN/A
7:20 PM37 °FPassing clouds.6 mph100%29.00 "HgN/A
6:50 PM37 °FPassing clouds.6 mph100%29.00 "HgN/A
6:20 PM37 °FPassing clouds.8 mph93%29.00 "HgN/A
5:50 PM37 °FPassing clouds.8 mph93%28.97 "HgN/A
5:20 PM37 °FPartly cloudy.8 mph93%28.97 "HgN/A
4:50 PM37 °FPassing clouds.6 mph93%28.97 "HgN/A
4:20 PM37 °FPartly sunny.7 mph93%28.97 "HgN/A
3:50 PM37 °FPartly sunny.7 mph93%28.94 "HgN/A
3:20 PM37 °FPartly sunny.8 mph93%28.94 "HgN/A
2:50 PM37 °FPartly sunny.10 mph93%28.94 "HgN/A
2:20 PM39 °FDrizzle. Broken clouds.10 mph87%28.94 "HgN/A
1:50 PM39 °FPartly sunny.8 mph87%28.91 "HgN/A
1:20 PM39 °FDrizzle. Partly sunny.12 mph93%28.94 "HgN/A
12:50 PM39 °FLight rain. Partly sunny.8 mph100%28.91 "HgN/A
12:20 PM39 °FDrizzle. Low clouds.10 mph100%28.94 "Hg4 mi
11:50 AM39 °FLow clouds.10 mph93%28.94 "HgN/A
11:20 AM39 °FFog.12 mph93%28.94 "Hg6 mi
Weather by CustomWeather, © 2016

See weather overviewHow to use our weather pages